Location: Browne Barr
(41.2080°N, 111.9480°W)
Time: 06:17:32
(UTC+00:00)

X-37B - Pass Details

Date: 10 August 2021
Orbit: 381 x 393 km, 45.0° (Epoch: 29 August)

Event Time Altitude Azimuth Distance (km) Brightness Sun altitude
Exits shadow 10:32:06 34° 326° (NW) 651 1.7 -19.9°
Maximum altitude 10:32:55 43° 8° (N) 547 1.6 -19.8°
Drops below altitude 10° 10:35:57 10° 82° (E) 1,396 4.2 -19.3°
Sets 10:38:04 0° 90° (E) 2,248 5.2 -19.1°
